DateTimeUTC,F1_A11,F1_S11,BsB_S11,BsG_S11,BsR_S11,BbsB_S11,BbsG_S11,BbsR_S11,BaB_A11,BaG_A11,BaR_A11,Tu_S11,T_S11,Uu_S11,U_S11,P_S11,T1_A11
2021-08-09T05:00:00Z,00000200,20000000,,,,,,,-000.27,0000.38,-000.54,18.5,25.4,03.7,02.4,0669.4,31.0
2021-08-09T05:01:00Z,00000200,20000000,,,,,,,0000.21,0000.19,0000.39,18.5,25.4,03.7,02.4,0669.4,31.0
2021-08-09T05:02:00Z,00000200,20000000,,,,,,,0000.27,0000.32,0000.12,18.4,25.4,03.7,02.4,0669.4,31.0
2021-08-09T05:03:00Z,00000200,60000000,,,,,,,-000.42,-000.20,-000.08,18.4,25.4,03.7,02.4,0669.4,31.0
2021-08-09T05:04:00Z,00000200,40000000,0002.22,0001.60,0000.78,0000.21,0000.64,0000.16,0000.05,-000.30,-000.04,18.5,25.2,03.7,02.5,0670.4,31.0
2021-08-09T05:05:00Z,00000200,00000000,0002.39,0001.56,0000.99,0000.43,0000.37,0000.17,-000.46,-000.03,0000.03,18.5,25.1,03.5,02.4,0670.4,31.0
2021-08-09T05:06:00Z,00000200,00000000,0003.05,0001.53,0001.12,0000.05,0000.34,-000.04,0000.22,0000.27,0000.30,18.5,25.1,03.6,02.4,0670.5,31.0
2021-08-09T05:07:00Z,00000200,00000000,0002.32,0001.41,0000.95,0000.54,0000.51,-000.19,0000.20,-000.24,0000.18,18.5,25.1,03.6,02.4,0670.4,31.0
2021-08-09T05:08:00Z,00000200,00000000,0001.78,0001.65,0000.87,0000.34,0000.38,0000.04,0000.24,0000.53,0000.45,18.6,25.1,03.6,02.4,0670.4,31.0
2021-08-09T05:09:00Z,00000200,00000000,0001.62,0001.46,0001.37,-000.06,0000.37,0000.53,0000.33,0000.26,0000.41,18.6,25.1,03.7,02.5,0670.4,31.0
2021-08-09T05:10:00Z,00000200,00000000,0002.89,0001.78,0000.96,0000.90,0000.55,0000.39,-000.14,-000.24,0000.04,18.6,25.1,03.7,02.5,0670.4,31.0
2021-08-09T05:11:00Z,00000200,00000000,0001.99,0001.77,0000.86,0000.41,0000.75,0000.04,-000.55,-000.26,-000.03,18.7,25.1,03.7,02.5,0670.4,31.0
2021-08-09T05:12:00Z,00000200,00000000,0003.38,0001.61,0001.01,0000.61,0000.31,0000.17,0000.58,0000.24,0000.67,18.7,25.1,03.8,02.6,0670.4,31.0
2021-08-09T05:13:00Z,00000200,00000000,0002.82,0001.51,0001.31,0000.34,0000.59,-000.06,-000.17,-000.17,0000.28,18.7,25.1,03.8,02.6,0670.4,31.0
2021-08-09T05:14:00Z,00000200,00000000,0001.77,0001.95,0001.10,0000.18,0000.40,0000.23,0000.00,0000.30,-000.13,18.7,25.1,03.8,02.6,0670.4,31.0
2021-08-09T05:15:00Z,00000200,00000000,0002.80,0001.86,0001.00,0000.82,0000.51,0000.14,-000.10,0000.12,0000.39,18.6,25.1,03.7,02.5,0670.5,31.0
2021-08-09T05:16:00Z,00000200,00000000,0001.96,0001.48,0001.23,0000.48,0000.41,-000.14,-000.28,0000.03,0000.10,18.6,25.1,03.7,02.5,0670.5,31.0
2021-08-09T05:17:00Z,00000200,00000000,0002.49,0001.69,0000.84,0000.59,0000.71,0000.06,0000.58,0000.15,0000.53,18.6,25.0,03.8,02.6,0670.5,31.0
2021-08-09T05:18:00Z,00000200,00000000,0001.91,0001.17,0000.86,0000.24,0000.41,0000.22,-000.00,0000.04,-000.03,18.6,25.0,03.7,02.5,0670.4,31.0
2021-08-09T05:19:00Z,00000200,00000000,0002.36,0001.53,0001.32,0000.56,0000.44,0000.14,-000.25,-000.15,0000.11,18.6,25.0,03.7,02.5,0670.4,31.0
2021-08-09T05:20:00Z,00000200,00000000,0001.78,0001.63,0000.67,0000.51,0000.62,0000.01,0000.05,0000.20,0000.26,18.5,25.0,03.8,02.5,0670.4,31.0
2021-08-09T05:21:00Z,00000200,00000000,0002.11,0002.00,0000.94,0000.13,0000.52,0000.03,0000.04,0000.21,0000.02,18.5,25.0,03.8,02.6,0670.4,31.0
2021-08-09T05:22:00Z,00000200,00000000,0001.97,0001.53,0000.83,0000.84,0000.30,-000.01,0000.07,-000.07,0000.54,18.5,25.0,03.8,02.6,0670.5,31.0
2021-08-09T05:23:00Z,00000200,00000000,0002.66,0001.48,0000.88,0000.51,0000.54,0000.19,-000.17,-000.20,-000.16,18.5,25.0,03.8,02.6,0670.5,31.0
2021-08-09T05:24:00Z,00000200,00000000,0001.88,0001.86,0001.09,0000.98,0000.36,0000.04,0000.22,0000.31,0000.25,18.6,25.1,03.7,02.5,0670.5,31.0
2021-08-09T05:25:00Z,00000200,00000000,0002.27,0001.33,0000.78,0000.04,0000.29,0000.06,-000.51,-000.06,-000.27,18.7,25.1,03.6,02.5,0670.5,31.0
2021-08-09T05:26:00Z,00000200,00000000,0002.66,0001.44,0000.77,-000.31,0000.27,0000.17,0000.10,-000.16,0000.28,18.7,25.1,03.7,02.5,0670.5,31.0
2021-08-09T05:27:00Z,00000200,00000000,0002.52,0001.41,0000.87,0000.83,0000.37,0000.30,-000.25,0000.22,0000.30,18.8,25.2,03.7,02.5,0670.5,31.1
2021-08-09T05:28:00Z,00000200,00000000,0002.07,0001.54,0000.74,0000.10,0000.37,0000.36,0000.34,-000.12,0000.03,18.8,25.2,03.7,02.5,0670.5,31.1
2021-08-09T05:29:00Z,00000200,00000000,0001.92,0001.50,0001.15,0000.53,0000.21,0000.19,0000.07,0000.09,0000.81,18.8,25.2,03.7,02.5,0670.5,31.0
2021-08-09T05:30:00Z,00000200,00000000,0001.90,0001.22,0001.05,-000.24,0000.77,0000.54,0000.06,0000.42,0000.00,18.8,25.2,03.8,02.6,0670.5,31.0
2021-08-09T05:31:00Z,00000200,00000000,0001.88,0001.30,0000.68,0000.45,0000.23,-000.00,0000.33,0000.37,0000.16,18.8,25.1,03.9,02.6,0670.5,31.0
2021-08-09T05:32:00Z,00000200,00000000,0002.19,0001.58,0000.94,0000.82,0000.23,0000.30,0000.15,0000.36,0000.92,18.7,25.1,04.0,02.7,0670.4,31.0
2021-08-09T05:33:00Z,00000200,00000000,0001.79,0001.56,0000.87,-000.20,0000.48,0000.13,-000.06,-000.32,-000.06,18.7,25.1,04.0,02.7,0670.4,31.0
2021-08-09T05:34:00Z,00000200,00000000,0001.58,0001.10,0000.96,0000.09,0000.22,0000.05,0000.29,0000.67,0000.44,18.7,25.1,04.0,02.7,0670.5,31.0
2021-08-09T05:35:00Z,00000200,00000000,0001.72,0001.57,0000.81,-000.17,0000.63,-000.20,0000.19,0000.24,0000.44,18.6,25.1,04.1,02.8,0670.4,31.0
2021-08-09T05:36:00Z,00000200,00000000,0001.99,0001.30,0000.82,0000.15,0000.53,0000.28,0000.31,0000.19,0000.11,18.6,25.1,04.1,02.8,0670.4,31.0
2021-08-09T05:37:00Z,00000200,00000000,0002.28,0001.45,0001.30,0000.53,0000.45,0000.07,0000.12,0000.11,0000.35,18.6,25.1,04.3,02.9,0670.4,31.0
2021-08-09T05:38:00Z,00000200,00000000,0001.81,0001.82,0000.96,0000.51,0000.44,0000.15,0000.72,0000.45,0000.45,18.7,25.1,04.4,03.0,0670.4,31.0
2021-08-09T05:39:00Z,00000200,00000000,0001.86,0001.35,0001.19,0000.23,0000.33,0000.22,-000.71,-000.34,0000.33,18.7,25.1,04.4,03.0,0670.4,31.0
2021-08-09T05:40:00Z,00000200,00000000,0002.87,0001.58,0000.93,0000.46,0000.29,0000.04,0000.64,0000.66,0000.59,18.8,25.1,04.5,03.0,0670.4,31.1
2021-08-09T05:41:00Z,00000200,00000000,0001.65,0001.70,0000.98,0000.35,0000.12,0000.12,0000.14,-000.11,0000.10,18.8,25.1,04.6,03.1,0670.4,31.0
2021-08-09T05:42:00Z,00000200,00000000,0002.44,0001.52,0001.13,0000.34,0000.32,0000.22,-000.00,-000.04,0000.26,18.8,25.2,04.6,03.1,0670.4,31.0
2021-08-09T05:43:00Z,00000200,00000000,0002.39,0001.73,0001.10,0000.11,0000.53,0000.38,0000.12,0000.75,0000.49,18.8,25.1,04.5,03.1,0670.4,31.0
2021-08-09T05:44:00Z,00000200,00000000,0002.21,0001.59,0001.28,0000.80,0000.36,0000.46,0000.40,-000.10,0000.35,18.8,25.1,04.6,03.1,0670.4,31.0
2021-08-09T05:45:00Z,00000200,00000000,0002.71,0001.57,0001.00,0000.53,0000.32,0000.11,-000.13,0000.37,0000.54,18.8,25.1,04.7,03.2,0670.4,31.0
2021-08-09T05:46:00Z,00000200,00000000,0002.03,0001.66,0000.93,0000.80,0000.11,-000.21,0000.74,0000.25,0000.33,18.7,25.1,04.8,03.3,0670.5,31.0
2021-08-09T05:47:00Z,00000200,00000000,0002.80,0001.85,0000.81,0000.13,0000.56,0000.01,-000.46,-000.09,-000.16,18.7,25.1,04.8,03.3,0670.4,31.0
2021-08-09T05:48:00Z,00000200,00000000,0003.02,0001.98,0000.88,0000.86,0000.41,0000.09,0000.13,0000.22,0000.49,18.7,25.1,04.8,03.3,0670.4,31.0
2021-08-09T05:49:00Z,00000200,00000000,0003.20,0001.65,0001.18,0000.20,0000.40,0000.12,0000.01,0000.22,0000.36,18.7,25.1,04.9,03.3,0670.4,31.0
2021-08-09T05:50:00Z,00000200,00000000,0002.59,0001.57,0001.14,0000.68,0000.40,0000.04,0000.06,0000.29,0000.38,18.7,25.0,05.0,03.4,0670.4,31.0
2021-08-09T05:51:00Z,00000200,00000000,0002.08,0001.61,0001.13,0000.28,0000.33,-000.29,0000.27,-000.15,0000.66,18.6,25.0,05.1,03.5,0670.4,31.0
2021-08-09T05:52:00Z,00000200,00000000,0002.24,0001.73,0001.30,0000.77,0000.36,-000.21,-000.19,0000.27,0000.17,18.6,25.0,05.2,03.5,0670.4,31.0
2021-08-09T05:53:00Z,00000200,00000000,0002.70,0001.92,0001.18,0000.42,0000.26,-000.24,0000.15,0000.21,-000.08,18.6,25.0,05.1,03.5,0670.4,31.0
2021-08-09T05:54:00Z,00000200,00000000,0001.41,0001.87,0000.98,0000.45,0000.29,0000.08,0000.20,0000.21,0000.39,18.6,25.0,05.2,03.5,0670.4,31.0
2021-08-09T05:55:00Z,00000200,00000000,0002.38,0001.98,0001.08,0000.80,0000.69,0000.23,0000.02,-000.17,0000.26,18.6,25.0,05.2,03.5,0670.4,31.0
2021-08-09T05:56:00Z,00000200,00000000,0002.43,0001.93,0001.26,0000.30,0000.24,0000.04,0000.27,0000.43,0000.24,18.6,25.0,05.3,03.6,0670.4,31.0
2021-08-09T05:57:00Z,00000200,40000000,,,,,,,-000.88,-000.90,-000.41,18.6,25.0,04.9,03.3,0670.3,31.0
2021-08-09T05:58:00Z,00000200,60000000,,,,,,,0000.42,0000.51,0000.29,18.3,25.1,05.0,03.3,0669.5,31.0
2021-08-09T05:59:00Z,00000200,20000000,,,,,,,0000.26,-000.04,-000.08,18.3,25.2,05.0,03.3,0669.4,31.0
